Regional Weather Roundup
Issued by NWS

Home | Current Version | Previous Version | Text Only | Print | Product List | Glossary Off
Versions: 1 2 3 4 5 6 7 8 9 10 11 12 13 14 15 16 17 18 19 20 21 22 23 24 25 26 27 28 29 30 31 32 33 34 35 36 37 38 39 40 41 42 43 44 45 46 47 48 49 50

000
ASUS43 KLMK 021002
RWRKY
KENTUCKY REGIONAL WEATHER ROUNDUP
NATIONAL WEATHER SERVICE LOUISVILLE KY
600 AM EDT WED SEP 02 2015

NOTE "FAIR" INDICATES FEW OR NO CLOUDS BELOW 12,000 FEET
WITH NO SIGNIFICANT WEATHER AND/OR OBSTRUCTIONS TO VISIBILITY.

KYZ001>023-026-027-061>063-070>075-021100-
WESTERN AND SOUTH CENTRAL KENTUCKY

CITY           SKY/WX    TMP DP  RH WIND       PRES   REMARKS
PADUCAH        MOCLDY    69  67  93 SE3       30.08S
HENDERSON      PTCLDY    66  63  88 CALM      30.08S
OWENSBORO      PTCLDY    69  67  93 CALM      30.10R
HOPKINSVILLE   CLOUDY    72  68  87 CALM      30.10R
BOWLING GREEN  CLEAR     69  67  93 CALM      30.11R FOG
GLASGOW        MOCLDY    65  65 100 CALM      30.11S FOG
$$

KYZ024-025-028>034-038-045-046-053-021100-
NORTH CENTRAL KENTUCKY

CITY           SKY/WX    TMP DP  RH WIND       PRES   REMARKS
LOUISVILLE/SDF CLEAR     72  68  87 SE3       30.10S
LOUISVILLE/LOU CLEAR     71  68  90 CALM      30.11S
FORT KNOX      FOG       65  64  97 CALM      30.10S VSB 1/4
$$

KYZ035>037-039>044-047>052-055>060-089>105-021100-
NORTHEAST KENTUCKY

CITY           SKY/WX    TMP DP  RH WIND       PRES   REMARKS
LEXINGTON      CLEAR     66  63  90 CALM      30.13S
COVINGTON      CLEAR     67  65  93 CALM      30.11S FOG
FRANKFORT      NOT AVBL
$$

KYZ054-064>069-076>088-106>120-021100-
SOUTHEAST KENTUCKY

CITY           SKY/WX    TMP DP  RH WIND       PRES   REMARKS
JACKSON        CLEAR     69  67  93 CALM      30.14F FOG
LONDON         PTCLDY    67  62  84 CALM      30.14S
SOMERSET       NOT AVBL
MIDDLESBORO    CLOUDY    65  65 100 CALM      30.15S FOG
MONTICELLO     FOG       63  63 100 CALM      30.16S VSB 1
$$



USA.gov is the U.S. government's official web portal to all federal, state and local government web resources and services.